Regional Weather Roundup
Issued by NWS

Home | Current Version | Previous Version | Text Only | Print | Product List | Glossary On
Versions: 1 2 3 4 5 6 7 8 9 10 11 12 13 14 15 16 17 18 19 20 21 22 23 24 25 26 27 28 29 30 31 32 33 34 35 36 37 38 39 40 41 42 43 44 45 46 47 48 49 50
000
ASUS43 KIND 300109
RWRIN

WEATHER ROUNDUP FOR INDIANA
NATIONAL WEATHER SERVICE INDIANAPOLIS IN
900 PM EDT SUN MAR 29 2015

NOTE: "FAIR" INDICATES FEW OR NO CLOUDS BELOW 12,000 FEET WITH NO
SIGNIFICANT WEATHER AND/OR OBSTRUCTIONS TO VISIBILITY.

* - STATION DOES NOT REPORT WEATHER SUCH AS PRECIPITATION OR FOG.

+ - STATION NOT QUALITY CONTROLLED BY THE NATIONAL WEATHER SERVICE.
    USE DATA WITH CAUTION...ESPECIALLY DEWPOINT AND RELATIVE
    HUMIDITY OBSERVATIONS.

INZ001>003-010>013-019-020-300200-
NORTHWEST INDIANA

CITY           SKY/WX    TMP DP  RH WIND       PRES   REMARKS
GARY /AIRPORT/ CLOUDY    48  32  53 SW12      29.79R
KNOX *+          N/A     43  23  45 SW18G26   29.81F
LA PORTE +     CLOUDY    45  36  71 SW15G22   29.80S
MICHIGAN CITY+ CLOUDY    43  32  65 S15G21    29.78S
MONTICELLO +   CLOUDY    42  35  75 SW15      29.86F
RENSSELAER +   CLOUDY    43  39  87 SW15      29.85S
VALPARAISO     CLOUDY    44  35  70 SW13      29.81S

$$

LMZ046-743>745-300200-
SOUTHERN LAKE MICHIGAN

STATION/POSITION TIME  TEMP WIND        PRES
                       AIR  DIR/SP/G
                 (UTC) (F)  (DEG/KT/KT) (MB)
BURNS HARBOR     0100   47  210/ 18/ 28 1008.8S
MICHIGAN CITY    0100   45  180/ 17/ 20   N/A

$$

INZ004-005-014>016-021>024-300200-
NORTH CENTRAL INDIANA

CITY           SKY/WX    TMP DP  RH WIND       PRES   REMARKS
GOSHEN         CLOUDY    41  30  65 SW22      29.81F
LOGANSPORT +   CLOUDY    39  34  81 S13       29.88F
PERU/GRISSOM   CLOUDY    40  34  76 SW13      29.87F
ROCHESTER +    MOCLDY    43  34  70 SW14      29.85F
SOUTH BEND     CLOUDY    44  33  65 SW20G29   29.80F
WARSAW +       CLOUDY    41  32  70 SW10G18   29.83F

$$

INZ006>009-017-018-025>027-300200-
NORTHEAST INDIANA

CITY           SKY/WX    TMP DP  RH WIND       PRES   REMARKS
ANGOLA *+      CLOUDY    41  28  60 SW17      29.80F
AUBURN +       CLOUDY    43  28  56 SW10G21   29.85F
FORT WAYNE     CLOUDY    39  30  70 S15       29.88F
HUNTINGTON +   CLOUDY    40  27  58 SW9       29.87F

$$

INZ028-029-035-036-043>045-051>053-300200-
WEST CENTRAL INDIANA

CITY           SKY/WX    TMP DP  RH WIND       PRES   REMARKS
CRAWFORDSVL +  PTCLDY    39  31  72 S10       29.91S
GREENCASTLE +  MOCLDY    43  32  65 SW5       29.93S
LAFAYETTE      MOCLDY    43  35  73 SW6       29.89F
TERRE HAUTE    MOCLDY    43  38  82 SW7       29.96R

$$

INZ030>032-037>040-046>048-054>057-064-065-300200-
CENTRAL INDIANA

CITY           SKY/WX    TMP DP  RH WIND       PRES   REMARKS
CP ATTERBURY + LGT RAIN  41  37  87 CALM      29.96S
COLUMBUS       LGT RAIN  41  36  81 NW6       29.96R
FISHERS *+     CLOUDY    41  37  87 SW6       29.93
FRANKFORT +    PTCLDY    38  35  86 S8        29.91F
GREENWOOD *+   CLOUDY    45  32  61 S6        29.95S
INDIANAPOLIS   CLOUDY    44  35  70 SW9       29.92F
-EAGLE CREEK   CLOUDY    43  34  70 SW6       29.93S
KOKOMO *+        N/A     41  34  75 SW15      29.89F
MARION +       CLOUDY    38  32  77 SW9       29.91S
MT COMFORT *+  CLOUDY    41  28  60 S6        29.93F
SHELBYVILLE    CLOUDY    44  35  70 S7        29.94F
ZIONSVILLE +   MOCLDY    41  32  71 SW9       29.93R

$$

INZ033-034-041-042-049-050-058-059-300200-
EAST CENTRAL INDIANA

CITY           SKY/WX    TMP DP  RH WIND       PRES   REMARKS
MUNCIE         CLOUDY    42  32  67 SW12      29.91F

$$

INZ060-061-067>069-081>083-085>088-300200-
SOUTHWEST INDIANA

CITY           SKY/WX    TMP DP  RH WIND       PRES   REMARKS
EVANSVILLE     LGT RAIN  57  39  51 SW12      30.01R
HUNTINGBURG *+ CLOUDY    55  36  47 SW12      29.97R
WASHINGTON +   LGT RAIN  50  40  67 W8        29.99R

$$

INZ062-063-066-070>080-084-089>092-300200-
SOUTH CENTRAL AND SOUTHEAST INDIANA

CITY           SKY/WX    TMP DP  RH WIND       PRES   REMARKS
BEDFORD +      LGT RAIN  48  37  66 W6        29.96R
BLOOMINGTON    LGT RAIN  44  40  85 SW5       29.95R
NORTH VERNON + LGT RAIN  48  32  53 S15G21    29.90F
SEYMOUR +      RAIN      48  37  66 S7        29.91F

$$



USA.gov is the U.S. government's official web portal to all federal, state and local government web resources and services.